Time,TemperatureF,DewpointF,PressureIn,WindDirection,WindDirectionDegrees,WindSpeedMPH,WindSpeedGustMPH,Humidity,HourlyPrecipIn,Conditions,Clouds,dailyrainin,SoftwareType,DateUTC
2013-06-10 00:00:00,65.1,64.6,30.01,SSW,203,2.0,20.0,98,0.09,,,0.64,meteohub,2013-06-10 04:00:00,
2013-06-10 00:01:00,65.1,64.6,30.01,SSW,200,6.0,20.0,98,0.09,,,0.64,meteohub,2013-06-10 04:01:00,
2013-06-10 00:02:00,65.1,64.6,30.01,ESE,121,4.0,20.0,98,0.09,,,0.64,meteohub,2013-06-10 04:02:00,
2013-06-10 00:07:00,65.1,64.8,30.01,SE,124,3.0,20.0,99,0.06,,,0.64,meteohub,2013-06-10 04:07:00,
2013-06-10 00:12:00,65.1,64.8,30.01,SE,124,17.0,17.0,99,0.04,,,0.64,meteohub,2013-06-10 04:12:00,
2013-06-10 00:17:00,65.1,64.8,30.01,SSE,150,8.0,18.0,99,0.03,,,0.64,meteohub,2013-06-10 04:17:00,
2013-06-10 00:22:00,65.1,64.8,30.01,SW,224,3.0,18.0,99,0.02,,,0.64,meteohub,2013-06-10 04:22:00,
2013-06-10 00:27:00,65.1,64.8,30.01,SE,124,4.0,18.0,99,0.01,,,0.64,meteohub,2013-06-10 04:27:00,
2013-06-10 00:32:00,65.1,64.8,30.01,South,176,2.0,14.0,99,0.02,,,0.65,meteohub,2013-06-10 04:32:00,
2013-06-10 00:37:00,65.1,64.8,30.00,ESE,114,3.0,14.0,99,0.02,,,0.65,meteohub,2013-06-10 04:37:00,
2013-06-10 00:42:00,65.1,64.8,30.00,SSE,152,5.0,11.0,99,0.01,,,0.65,meteohub,2013-06-10 04:42:00,
2013-06-10 00:47:00,65.1,64.8,30.00,SE,134,7.0,11.0,99,0.01,,,0.65,meteohub,2013-06-10 04:47:00,
2013-06-10 00:52:00,65.1,64.8,30.00,SE,128,1.0,10.0,99,0.01,,,0.65,meteohub,2013-06-10 04:52:00,
2013-06-10 00:57:00,65.1,64.8,30.00,ENE,76,2.0,11.0,99,0.01,,,0.65,meteohub,2013-06-10 04:57:00,
2013-06-10 01:02:00,65.3,64.9,29.99,SSE,148,2.0,11.0,99,0.01,,,0.65,meteohub,2013-06-10 05:02:00,
2013-06-10 01:07:00,65.3,64.9,29.99,SE,131,4.0,12.0,99,0.01,,,0.65,meteohub,2013-06-10 05:07:00,
2013-06-10 01:12:00,65.3,64.9,29.99,East,92,0.0,12.0,99,0.08,,,0.72,meteohub,2013-06-10 05:12:00,
2013-06-10 01:17:00,65.3,64.9,29.99,South,177,7.0,12.0,99,0.10,,,0.74,meteohub,2013-06-10 05:17:00,
2013-06-10 01:22:00,65.3,64.9,29.99,SSE,163,3.0,7.0,99,0.17,,,0.81,meteohub,2013-06-10 05:22:00,
2013-06-10 01:27:00,65.1,64.8,29.99,SSE,165,1.0,7.0,99,0.28,,,0.92,meteohub,2013-06-10 05:27:00,
2013-06-10 01:32:00,65.1,64.8,29.98,SSE,158,1.0,7.0,99,0.29,,,0.94,meteohub,2013-06-10 05:32:00,
2013-06-10 01:37:00,65.1,64.8,29.98,ESE,117,2.0,7.0,99,0.34,,,0.99,meteohub,2013-06-10 05:37:00,
2013-06-10 01:42:00,65.1,64.8,29.98,ESE,103,5.0,7.0,99,0.37,,,1.02,meteohub,2013-06-10 05:42:00,
2013-06-10 01:47:00,65.1,64.8,29.98,SW,235,2.0,6.0,99,0.38,,,1.03,meteohub,2013-06-10 05:47:00,
2013-06-10 01:52:00,65.1,64.6,29.98,SSE,167,6.0,25.0,98,0.40,,,1.05,meteohub,2013-06-10 05:52:00,
2013-06-10 01:57:00,65.1,64.6,29.98,SE,127,5.0,25.0,98,0.41,,,1.05,meteohub,2013-06-10 05:57:00,
2013-06-10 02:02:00,64.9,64.4,29.98,ESE,119,4.0,25.0,98,0.41,,,1.06,meteohub,2013-06-10 06:02:00,
2013-06-10 02:07:00,64.8,64.2,29.98,SSE,152,3.0,19.0,98,0.39,,,1.06,meteohub,2013-06-10 06:07:00,
2013-06-10 02:12:00,64.8,64.2,29.98,ENE,74,3.0,19.0,98,0.34,,,1.06,meteohub,2013-06-10 06:12:00,
2013-06-10 02:17:00,64.8,64.4,29.98,SE,135,2.0,19.0,99,0.30,,,1.07,meteohub,2013-06-10 06:17:00,
2013-06-10 02:22:00,64.8,64.4,29.98,SSE,151,1.0,17.0,99,0.25,,,1.07,meteohub,2013-06-10 06:22:00,
2013-06-10 02:27:00,64.8,64.4,29.98,SSE,166,2.0,15.0,99,0.15,,,1.07,meteohub,2013-06-10 06:27:00,
2013-06-10 02:32:00,64.6,64.2,29.98,WNW,285,8.0,13.0,99,0.11,,,1.07,meteohub,2013-06-10 06:32:00,
2013-06-10 02:37:00,64.8,64.4,29.98,NW,317,0.0,13.0,99,0.09,,,1.08,meteohub,2013-06-10 06:37:00,
2013-06-10 02:42:00,64.8,64.4,29.97,WSW,246,2.0,13.0,99,0.06,,,1.08,meteohub,2013-06-10 06:42:00,
2013-06-10 02:49:00,64.8,64.4,29.97,SE,135,2.0,13.0,99,0.06,,,1.10,meteohub,2013-06-10 06:49:00,
2013-06-10 02:54:00,64.8,64.4,29.97,South,186,2.0,8.0,99,0.06,,,1.11,meteohub,2013-06-10 06:54:00,
2013-06-10 02:59:00,64.8,64.4,29.97,ENE,75,5.0,19.0,99,0.05,,,1.11,meteohub,2013-06-10 06:59:00,
2013-06-10 03:04:00,64.8,64.4,29.96,ESE,106,0.0,19.0,99,0.06,,,1.12,meteohub,2013-06-10 07:04:00,
2013-06-10 03:09:00,64.8,64.4,29.96,SE,134,0.0,14.0,99,0.06,,,1.12,meteohub,2013-06-10 07:09:00,
2013-06-10 03:14:00,64.8,64.4,29.96,East,100,0.0,14.0,99,0.09,,,1.16,meteohub,2013-06-10 07:14:00,
2013-06-10 03:19:00,64.8,64.4,29.96,East,101,1.0,7.0,99,0.10,,,1.17,meteohub,2013-06-10 07:19:00,
2013-06-10 03:24:00,64.8,64.4,29.96,SE,143,1.0,7.0,99,0.14,,,1.21,meteohub,2013-06-10 07:24:00,
2013-06-10 03:29:00,64.9,64.6,29.96,East,91,3.0,9.0,99,0.14,,,1.21,meteohub,2013-06-10 07:29:00,
2013-06-10 03:34:00,64.9,64.6,29.95,SE,131,6.0,11.0,99,0.14,,,1.21,meteohub,2013-06-10 07:34:00,
2013-06-10 03:39:00,64.9,64.6,29.95,SE,143,2.0,13.0,99,0.13,,,1.21,meteohub,2013-06-10 07:39:00,
2013-06-10 03:44:00,64.9,64.6,29.95,SW,221,1.0,13.0,99,0.13,,,1.23,meteohub,2013-06-10 07:44:00,
2013-06-10 03:49:00,64.0,63.5,29.96,West,267,2.0,12.0,98,0.14,,,1.24,meteohub,2013-06-10 07:49:00,
2013-06-10 03:54:00,64.0,63.5,29.95,SW,235,1.0,12.0,98,0.17,,,1.28,meteohub,2013-06-10 07:54:00,
2013-06-10 03:59:00,64.0,63.5,29.96,North,-999,-999.0,12.0,98,0.16,,,1.28,meteohub,2013-06-10 07:59:00,
2013-06-10 07:36:00,64.0,63.5,29.97,North,-999,-999.0,-999.0,98,-99.99,,,1.28,meteohub,2013-06-10 11:36:00,
2013-06-10 07:41:00,64.0,63.5,29.97,North,-999,-999.0,-999.0,98,0.00,,,1.28,meteohub,2013-06-10 11:41:00,
2013-06-10 07:46:00,64.0,63.5,29.97,West,264,1.0,7.0,98,0.00,,,1.28,meteohub,2013-06-10 11:46:00,
2013-06-10 07:51:00,64.0,63.5,29.97,North,359,0.0,8.0,98,0.00,,,1.28,meteohub,2013-06-10 11:51:00,
2013-06-10 07:56:00,64.2,63.7,29.97,SSW,198,5.0,8.0,98,0.00,,,1.28,meteohub,2013-06-10 11:56:00,
2013-06-10 08:01:00,64.2,63.7,29.97,SSW,194,0.0,11.0,98,0.00,,,1.28,meteohub,2013-06-10 12:01:00,
2013-06-10 08:06:00,64.2,63.7,29.97,SSE,156,1.0,11.0,98,0.00,,,1.28,meteohub,2013-06-10 12:06:00,
2013-06-10 08:11:00,64.4,63.5,29.97,SW,219,3.0,11.0,97,0.00,,,1.28,meteohub,2013-06-10 12:11:00,
2013-06-10 08:16:00,64.6,63.7,29.97,South,176,4.0,9.0,97,0.00,,,1.28,meteohub,2013-06-10 12:16:00,
2013-06-10 08:21:00,64.6,64.0,29.97,WNW,296,1.0,9.0,98,0.00,,,1.28,meteohub,2013-06-10 12:21:00,
2013-06-10 08:27:00,64.6,63.7,29.97,SSE,156,1.0,8.0,97,0.00,,,1.28,meteohub,2013-06-10 12:27:00,
2013-06-10 08:32:00,64.8,64.2,29.97,SE,128,3.0,14.0,98,0.00,,,1.28,meteohub,2013-06-10 12:32:00,
2013-06-10 08:37:00,64.8,64.2,29.97,South,190,1.0,14.0,98,0.00,,,1.28,meteohub,2013-06-10 12:37:00,
2013-06-10 08:42:00,64.8,64.2,29.97,ESE,104,1.0,14.0,98,0.00,,,1.28,meteohub,2013-06-10 12:42:00,
2013-06-10 08:47:00,64.9,64.4,29.97,SE,135,0.0,9.0,98,0.00,,,1.28,meteohub,2013-06-10 12:47:00,
2013-06-10 08:52:00,64.9,64.4,29.97,SSW,212,0.0,6.0,98,0.00,,,1.28,meteohub,2013-06-10 12:52:00,
2013-06-10 08:57:00,65.1,64.6,29.97,South,188,4.0,5.0,98,0.00,,,1.28,meteohub,2013-06-10 12:57:00,
2013-06-10 09:02:00,65.3,64.4,29.97,WSW,245,0.0,5.0,97,0.00,,,1.28,meteohub,2013-06-10 13:02:00,
2013-06-10 09:07:00,65.5,64.6,29.97,NW,315,2.0,7.0,97,0.00,,,1.28,meteohub,2013-06-10 13:07:00,
2013-06-10 09:12:00,65.5,64.2,29.97,SSW,212,2.0,7.0,96,0.00,,,1.28,meteohub,2013-06-10 13:12:00,
2013-06-10 09:17:00,65.8,64.9,29.97,East,91,0.0,11.0,97,0.00,,,1.28,meteohub,2013-06-10 13:17:00,
2013-06-10 09:22:00,66.0,64.8,29.97,West,262,1.0,11.0,96,0.00,,,1.28,meteohub,2013-06-10 13:22:00,
2013-06-10 09:27:00,66.0,65.1,29.97,SSW,205,1.0,11.0,97,0.01,,,1.29,meteohub,2013-06-10 13:27:00,
2013-06-10 09:32:00,65.8,64.6,29.97,WSW,258,0.0,7.0,96,0.03,,,1.31,meteohub,2013-06-10 13:32:00,
2013-06-10 09:37:00,65.7,64.4,29.97,SW,217,1.0,7.0,96,0.07,,,1.35,meteohub,2013-06-10 13:37:00,
2013-06-10 09:42:00,65.7,64.8,29.97,SSE,160,6.0,10.0,97,0.07,,,1.35,meteohub,2013-06-10 13:42:00,
2013-06-10 09:47:00,65.7,64.8,29.97,East,89,1.0,10.0,97,0.07,,,1.35,meteohub,2013-06-10 13:47:00,
2013-06-10 09:52:00,65.8,64.9,29.97,ESE,102,2.0,7.0,97,0.07,,,1.35,meteohub,2013-06-10 13:52:00,
2013-06-10 09:57:00,65.8,64.9,29.96,SSE,162,0.0,7.0,97,0.07,,,1.35,meteohub,2013-06-10 13:57:00,
2013-06-10 10:02:00,66.0,65.1,29.96,NE,53,1.0,7.0,97,0.07,,,1.35,meteohub,2013-06-10 14:02:00,
2013-06-10 10:07:00,66.0,65.1,29.97,ESE,114,0.0,7.0,97,0.07,,,1.35,meteohub,2013-06-10 14:07:00,
2013-06-10 10:12:00,65.8,64.9,29.96,SSW,204,2.0,7.0,97,0.07,,,1.35,meteohub,2013-06-10 14:12:00,
2013-06-10 10:17:00,65.8,64.9,29.96,SSE,148,2.0,7.0,97,0.07,,,1.35,meteohub,2013-06-10 14:17:00,
2013-06-10 10:22:00,65.8,64.9,29.96,SE,124,1.0,5.0,97,0.08,,,1.36,meteohub,2013-06-10 14:22:00,
2013-06-10 10:27:00,66.0,65.1,29.96,East,94,1.0,5.0,97,0.06,,,1.36,meteohub,2013-06-10 14:27:00,
2013-06-10 10:32:00,66.0,65.5,29.96,WNW,295,1.0,6.0,98,0.01,,,1.36,meteohub,2013-06-10 14:32:00,
2013-06-10 10:37:00,66.4,65.5,29.96,South,172,0.0,6.0,97,0.01,,,1.36,meteohub,2013-06-10 14:37:00,
2013-06-10 10:42:00,66.6,65.7,29.96,SSE,163,0.0,6.0,97,0.01,,,1.36,meteohub,2013-06-10 14:42:00,
2013-06-10 10:47:00,66.6,65.3,29.96,SE,146,1.0,7.0,96,0.01,,,1.36,meteohub,2013-06-10 14:47:00,
2013-06-10 10:52:00,66.4,65.1,29.96,SSE,166,2.0,12.0,96,0.01,,,1.36,meteohub,2013-06-10 14:52:00,
2013-06-10 10:57:00,66.6,65.7,29.96,SSE,159,6.0,12.0,97,0.01,,,1.36,meteohub,2013-06-10 14:57:00,
2013-06-10 11:02:00,66.7,65.8,29.96,SE,131,2.0,12.0,97,0.01,,,1.36,meteohub,2013-06-10 15:02:00,
2013-06-10 11:07:00,67.5,66.6,29.96,East,81,1.0,7.0,97,0.01,,,1.36,meteohub,2013-06-10 15:07:00,
2013-06-10 11:12:00,68.4,67.1,29.96,West,274,1.0,7.0,96,0.01,,,1.36,meteohub,2013-06-10 15:12:00,
2013-06-10 11:17:00,68.9,66.7,29.96,WNW,288,2.0,6.0,93,0.01,,,1.36,meteohub,2013-06-10 15:17:00,
2013-06-10 11:22:00,68.7,66.6,29.96,East,101,2.0,6.0,93,0.00,,,1.36,meteohub,2013-06-10 15:22:00,
2013-06-10 11:27:00,68.7,66.0,29.96,South,180,1.0,6.0,91,0.00,,,1.36,meteohub,2013-06-10 15:27:00,
2013-06-10 11:32:00,68.5,66.4,29.95,SE,129,1.0,6.0,93,0.00,,,1.36,meteohub,2013-06-10 15:32:00,
2013-06-10 11:37:00,68.4,66.6,29.95,West,277,1.0,8.0,94,0.01,,,1.37,meteohub,2013-06-10 15:37:00,
2013-06-10 11:42:00,68.2,66.4,29.95,SE,132,0.0,8.0,94,0.01,,,1.37,meteohub,2013-06-10 15:42:00,
2013-06-10 11:47:00,67.6,65.8,29.94,SSE,162,0.0,8.0,94,0.02,,,1.38,meteohub,2013-06-10 15:47:00,
2013-06-10 11:52:00,67.5,66.0,29.95,SE,128,1.0,6.0,95,0.03,,,1.39,meteohub,2013-06-10 15:52:00,
2013-06-10 11:57:00,66.9,65.7,29.95,ESE,122,3.0,5.0,96,0.05,,,1.41,meteohub,2013-06-10 15:57:00,
2013-06-10 12:02:00,66.7,65.5,29.94,SE,127,5.0,5.0,96,0.06,,,1.42,meteohub,2013-06-10 16:02:00,
2013-06-10 12:07:00,66.9,66.0,29.94,SSE,156,0.0,5.0,97,0.06,,,1.42,meteohub,2013-06-10 16:07:00,
2013-06-10 12:13:00,66.7,65.5,29.94,SSW,205,5.0,6.0,96,0.06,,,1.42,meteohub,2013-06-10 16:13:00,
2013-06-10 12:18:00,66.7,65.8,29.93,ESE,115,5.0,13.0,97,0.06,,,1.42,meteohub,2013-06-10 16:18:00,
2013-06-10 12:23:00,66.4,65.5,29.96,SW,222,7.0,13.0,97,0.09,,,1.45,meteohub,2013-06-10 16:23:00,
2013-06-10 12:28:00,65.3,63.1,29.97,West,268,2.0,13.0,93,0.15,,,1.51,meteohub,2013-06-10 16:28:00,
2013-06-10 12:33:00,64.0,62.2,29.96,West,271,0.0,13.0,94,0.32,,,1.69,meteohub,2013-06-10 16:33:00,
2013-06-10 12:38:00,63.5,62.1,29.96,SE,125,0.0,13.0,95,0.35,,,1.72,meteohub,2013-06-10 16:38:00,
2013-06-10 12:43:00,63.3,62.2,29.95,SE,127,1.0,7.0,96,0.36,,,1.73,meteohub,2013-06-10 16:43:00,
2013-06-10 12:48:00,63.7,62.8,29.96,NW,317,0.0,7.0,97,0.36,,,1.74,meteohub,2013-06-10 16:48:00,
2013-06-10 12:53:00,63.7,62.8,29.97,West,259,0.0,4.0,97,0.35,,,1.74,meteohub,2013-06-10 16:53:00,
2013-06-10 12:58:00,63.7,62.8,29.96,ESE,119,0.0,3.0,97,0.33,,,1.74,meteohub,2013-06-10 16:58:00,
2013-06-10 13:03:00,63.7,62.8,29.95,ENE,72,0.0,4.0,97,0.34,,,1.76,meteohub,2013-06-10 17:03:00,
2013-06-10 13:08:00,63.9,63.3,29.94,ENE,74,0.0,4.0,98,0.35,,,1.77,meteohub,2013-06-10 17:08:00,
2013-06-10 13:13:00,64.6,64.0,29.93,ENE,74,0.0,3.0,98,0.36,,,1.78,meteohub,2013-06-10 17:13:00,
2013-06-10 13:18:00,64.9,64.4,29.92,East,91,0.0,2.0,98,0.36,,,1.78,meteohub,2013-06-10 17:18:00,
2013-06-10 13:23:00,65.8,64.4,29.92,SSE,151,0.0,1.0,95,0.28,,,1.78,meteohub,2013-06-10 17:23:00,
2013-06-10 13:28:00,66.9,65.5,29.93,East,101,0.0,3.0,95,0.23,,,1.78,meteohub,2013-06-10 17:28:00,
2013-06-10 13:33:00,68.4,65.3,29.93,ESE,103,0.0,3.0,90,0.08,,,1.78,meteohub,2013-06-10 17:33:00,
2013-06-10 13:38:00,69.3,66.9,29.93,SE,143,1.0,3.0,92,0.06,,,1.78,meteohub,2013-06-10 17:38:00,
2013-06-10 13:43:00,70.5,66.7,29.93,SSW,198,0.0,6.0,88,0.05,,,1.78,meteohub,2013-06-10 17:43:00,
2013-06-10 13:48:00,70.2,63.7,29.94,SE,129,0.0,6.0,80,0.04,,,1.78,meteohub,2013-06-10 17:48:00,
2013-06-10 13:53:00,69.8,65.1,29.94,South,185,0.0,6.0,85,0.04,,,1.78,meteohub,2013-06-10 17:53:00,
2013-06-10 13:58:00,70.5,66.2,29.94,ESE,113,1.0,6.0,86,0.03,,,1.78,meteohub,2013-06-10 17:58:00,
2013-06-10 14:03:00,71.4,66.0,29.94,North,353,0.0,6.0,83,0.01,,,1.78,meteohub,2013-06-10 18:03:00,
2013-06-10 14:08:00,73.2,65.7,29.94,SW,226,1.0,5.0,77,0.00,,,1.78,meteohub,2013-06-10 18:08:00,
2013-06-10 14:13:00,73.9,67.1,29.94,South,176,0.0,5.0,79,0.00,,,1.78,meteohub,2013-06-10 18:13:00,
2013-06-10 14:18:00,73.9,64.8,29.94,ESE,102,0.0,5.0,73,0.00,,,1.78,meteohub,2013-06-10 18:18:00,
2013-06-10 14:23:00,74.1,66.4,29.93,SW,229,3.0,5.0,77,0.00,,,1.78,meteohub,2013-06-10 18:23:00,
2013-06-10 14:28:00,73.8,64.2,29.93,NNW,342,0.0,7.0,72,0.00,,,1.78,meteohub,2013-06-10 18:28:00,
2013-06-10 14:33:00,73.8,64.9,29.93,WNW,293,1.0,7.0,74,0.00,,,1.78,meteohub,2013-06-10 18:33:00,
2013-06-10 14:38:00,73.9,65.1,29.93,WSW,246,2.0,7.0,74,0.00,,,1.78,meteohub,2013-06-10 18:38:00,
2013-06-10 14:43:00,74.1,66.0,29.93,SE,132,3.0,7.0,76,0.00,,,1.78,meteohub,2013-06-10 18:43:00,
2013-06-10 14:48:00,74.3,65.5,29.92,SW,217,0.0,5.0,74,0.00,,,1.78,meteohub,2013-06-10 18:48:00,
2013-06-10 14:53:00,75.4,66.6,29.92,WNW,299,4.0,9.0,74,0.00,,,1.78,meteohub,2013-06-10 18:53:00,
2013-06-10 14:58:00,74.8,64.0,29.92,South,191,0.0,9.0,69,0.00,,,1.78,meteohub,2013-06-10 18:58:00,
2013-06-10 15:03:00,75.6,65.1,29.92,South,174,3.0,8.0,70,0.00,,,1.78,meteohub,2013-06-10 19:03:00,
2013-06-10 15:08:00,76.5,66.7,29.92,ESE,118,1.0,8.0,72,0.00,,,1.78,meteohub,2013-06-10 19:08:00,
2013-06-10 15:13:00,75.6,65.5,29.92,SE,138,2.0,8.0,71,0.00,,,1.78,meteohub,2013-06-10 19:13:00,
2013-06-10 15:18:00,75.6,65.8,29.92,WSW,252,0.0,6.0,72,0.00,,,1.78,meteohub,2013-06-10 19:18:00,
2013-06-10 15:23:00,76.8,67.8,29.92,NE,45,1.0,6.0,74,0.00,,,1.78,meteohub,2013-06-10 19:23:00,
2013-06-10 15:28:00,76.5,63.9,29.93,NNW,340,2.0,6.0,65,0.00,,,1.78,meteohub,2013-06-10 19:28:00,
2013-06-10 15:33:00,76.3,64.0,29.92,SSW,195,2.0,8.0,66,0.00,,,1.78,meteohub,2013-06-10 19:33:00,
2013-06-10 15:38:00,75.4,64.6,29.92,ESE,122,0.0,8.0,69,0.00,,,1.78,meteohub,2013-06-10 19:38:00,
2013-06-10 15:43:00,74.8,65.7,29.92,NW,311,2.0,8.0,73,0.00,,,1.78,meteohub,2013-06-10 19:43:00,
2013-06-10 15:48:00,75.4,63.7,29.92,SSE,167,2.0,8.0,67,0.00,,,1.78,meteohub,2013-06-10 19:48:00,
2013-06-10 15:53:00,75.4,64.9,29.92,WNW,289,2.0,7.0,70,0.00,,,1.78,meteohub,2013-06-10 19:53:00,
2013-06-10 15:58:00,74.8,65.1,29.92,WSW,252,2.0,6.0,72,0.00,,,1.78,meteohub,2013-06-10 19:58:00,
2013-06-10 16:03:00,74.7,65.1,29.92,ESE,106,0.0,6.0,72,0.00,,,1.78,meteohub,2013-06-10 20:03:00,
2013-06-10 16:08:00,74.8,66.0,29.92,East,101,1.0,6.0,74,0.00,,,1.78,meteohub,2013-06-10 20:08:00,
2013-06-10 16:13:00,74.5,65.3,29.91,West,266,1.0,6.0,73,0.00,,,1.78,meteohub,2013-06-10 20:13:00,
2013-06-10 16:18:00,73.9,65.1,29.91,SW,228,4.0,5.0,74,0.00,,,1.78,meteohub,2013-06-10 20:18:00,
2013-06-10 16:23:00,73.6,64.4,29.91,West,276,1.0,6.0,73,0.00,,,1.78,meteohub,2013-06-10 20:23:00,
2013-06-10 16:28:00,73.6,64.4,29.91,WNW,294,1.0,6.0,73,0.00,,,1.78,meteohub,2013-06-10 20:28:00,
2013-06-10 16:33:00,73.8,65.7,29.91,NNE,27,2.0,5.0,76,0.00,,,1.78,meteohub,2013-06-10 20:33:00,
2013-06-10 16:38:00,73.8,64.9,29.91,West,261,0.0,3.0,74,0.00,,,1.78,meteohub,2013-06-10 20:38:00,
2013-06-10 16:43:00,73.9,66.2,29.91,ESE,110,2.0,5.0,77,0.00,,,1.78,meteohub,2013-06-10 20:43:00,
2013-06-10 16:48:00,73.8,66.4,29.91,East,89,0.0,5.0,78,0.00,,,1.78,meteohub,2013-06-10 20:48:00,
2013-06-10 16:53:00,73.6,67.5,29.90,ENE,62,0.0,4.0,81,0.00,,,1.78,meteohub,2013-06-10 20:53:00,
2013-06-10 16:58:00,73.8,66.0,29.90,NE,34,0.0,5.0,77,0.00,,,1.78,meteohub,2013-06-10 20:58:00,
2013-06-10 17:03:00,73.2,66.0,29.90,SSW,197,2.0,6.0,78,0.00,,,1.78,meteohub,2013-06-10 21:03:00,
2013-06-10 17:08:00,73.4,66.6,29.90,WSW,252,0.0,6.0,79,0.00,,,1.78,meteohub,2013-06-10 21:08:00,
2013-06-10 17:13:00,73.2,66.4,29.90,SSE,150,1.0,6.0,79,0.00,,,1.78,meteohub,2013-06-10 21:13:00,
2013-06-10 17:19:00,73.8,67.6,29.90,SE,136,2.0,6.0,81,0.00,,,1.78,meteohub,2013-06-10 21:19:00,
2013-06-10 17:21:00,73.6,66.7,29.90,ENE,75,4.0,6.0,79,0.00,,,1.78,meteohub,2013-06-10 21:21:00,
2013-06-10 17:27:00,73.2,67.1,29.90,SE,141,2.0,5.0,81,0.00,,,1.78,meteohub,2013-06-10 21:27:00,
2013-06-10 17:32:00,72.9,66.4,29.91,SSW,204,1.0,8.0,80,0.00,,,1.78,meteohub,2013-06-10 21:32:00,
2013-06-10 17:37:00,72.9,67.1,29.91,East,96,0.0,8.0,82,0.00,,,1.78,meteohub,2013-06-10 21:37:00,
2013-06-10 17:42:00,72.3,66.2,29.91,SE,132,2.0,8.0,81,0.00,,,1.78,meteohub,2013-06-10 21:42:00,
2013-06-10 17:47:00,72.0,66.2,29.92,WSW,246,2.0,6.0,82,0.00,,,1.78,meteohub,2013-06-10 21:47:00,
2013-06-10 17:52:00,71.6,66.2,29.91,SSW,194,2.0,9.0,83,0.00,,,1.78,meteohub,2013-06-10 21:52:00,
2013-06-10 17:57:00,71.4,66.0,29.91,SE,138,5.0,9.0,83,0.00,,,1.78,meteohub,2013-06-10 21:57:00,
2013-06-10 18:02:00,71.6,66.2,29.91,SSE,163,4.0,9.0,83,0.00,,,1.78,meteohub,2013-06-10 22:02:00,
2013-06-10 18:07:00,71.4,66.0,29.91,SE,134,1.0,8.0,83,0.00,,,1.78,meteohub,2013-06-10 22:07:00,
2013-06-10 18:12:00,71.2,65.8,29.91,SE,134,4.0,8.0,83,0.00,,,1.78,meteohub,2013-06-10 22:12:00,
2013-06-10 18:17:00,71.6,66.6,29.91,NW,308,2.0,8.0,84,0.00,,,1.78,meteohub,2013-06-10 22:17:00,
2013-06-10 18:22:00,71.8,66.4,29.91,ENE,73,1.0,8.0,83,0.00,,,1.78,meteohub,2013-06-10 22:22:00,
2013-06-10 18:27:00,71.1,65.7,29.92,ESE,117,5.0,7.0,83,0.00,,,1.78,meteohub,2013-06-10 22:27:00,
2013-06-10 18:32:00,70.5,65.5,29.91,SSE,161,4.0,7.0,84,0.00,,,1.78,meteohub,2013-06-10 22:32:00,
2013-06-10 18:37:00,70.5,65.8,29.91,SE,125,1.0,9.0,85,0.00,,,1.78,meteohub,2013-06-10 22:37:00,
2013-06-10 18:42:00,70.5,66.2,29.91,SE,134,4.0,9.0,86,0.00,,,1.78,meteohub,2013-06-10 22:42:00,
2013-06-10 18:47:00,70.5,66.2,29.91,ESE,108,4.0,9.0,86,0.00,,,1.78,meteohub,2013-06-10 22:47:00,
2013-06-10 18:52:00,70.9,66.2,29.91,SE,135,2.0,7.0,85,0.00,,,1.78,meteohub,2013-06-10 22:52:00,
2013-06-10 18:57:00,70.9,65.8,29.91,SSE,155,3.0,7.0,84,0.00,,,1.78,meteohub,2013-06-10 22:57:00,
2013-06-10 19:02:00,70.9,66.6,29.91,East,91,4.0,8.0,86,0.00,,,1.78,meteohub,2013-06-10 23:02:00,
2013-06-10 19:07:00,71.1,66.0,29.91,ESE,121,3.0,8.0,84,0.00,,,1.78,meteohub,2013-06-10 23:07:00,
2013-06-10 19:12:00,70.9,66.2,29.91,East,99,0.0,8.0,85,0.00,,,1.78,meteohub,2013-06-10 23:12:00,
2013-06-10 19:17:00,70.5,66.2,29.91,SSE,165,0.0,6.0,86,0.00,,,1.78,meteohub,2013-06-10 23:17:00,
2013-06-10 19:22:00,70.7,66.4,29.91,SE,140,1.0,6.0,86,0.00,,,1.78,meteohub,2013-06-10 23:22:00,
2013-06-10 19:27:00,70.7,66.4,29.90,NE,34,1.0,6.0,86,0.00,,,1.78,meteohub,2013-06-10 23:27:00,
2013-06-10 19:32:00,70.3,66.0,29.90,East,101,0.0,3.0,86,0.00,,,1.78,meteohub,2013-06-10 23:32:00,
2013-06-10 19:37:00,69.6,65.8,29.90,SE,141,1.0,3.0,88,0.00,,,1.78,meteohub,2013-06-10 23:37:00,
2013-06-10 19:42:00,69.1,65.3,29.90,SE,139,1.0,4.0,88,0.00,,,1.78,meteohub,2013-06-10 23:42:00,
2013-06-10 19:47:00,68.5,65.1,29.90,ESE,105,0.0,4.0,89,0.00,,,1.78,meteohub,2013-06-10 23:47:00,
2013-06-10 19:52:00,68.2,65.5,29.90,SW,219,0.0,4.0,91,0.00,,,1.78,meteohub,2013-06-10 23:52:00,
2013-06-10 19:57:00,67.8,65.1,29.90,SSW,194,0.0,3.0,91,0.00,,,1.78,meteohub,2013-06-10 23:57:00,
2013-06-10 20:02:00,67.6,65.3,29.91,SSE,156,0.0,3.0,92,0.00,,,1.78,meteohub,2013-06-11 00:02:00,
2013-06-10 20:08:00,67.6,65.3,29.90,NW,326,0.0,3.0,92,0.00,,,0.00,meteohub,2013-06-11 00:08:00,
2013-06-10 20:12:00,67.5,65.3,29.91,ESE,120,0.0,3.0,93,0.00,,,0.00,meteohub,2013-06-11 00:12:00,
2013-06-10 20:17:00,67.3,65.1,29.90,East,89,0.0,1.0,93,0.00,,,0.00,meteohub,2013-06-11 00:17:00,
2013-06-10 20:23:00,67.1,64.9,29.91,ESE,103,1.0,2.0,93,0.00,,,0.00,meteohub,2013-06-11 00:23:00,
2013-06-10 20:28:00,66.9,64.8,29.91,SE,136,1.0,3.0,93,0.00,,,0.00,meteohub,2013-06-11 00:28:00,
2013-06-10 20:33:00,66.7,64.9,29.91,SSE,154,2.0,3.0,94,0.00,,,0.00,meteohub,2013-06-11 00:33:00,
2013-06-10 20:38:00,66.6,64.8,29.91,SSE,153,0.0,3.0,94,0.00,,,0.00,meteohub,2013-06-11 00:38:00,
2013-06-10 20:43:00,66.2,64.8,29.91,SSE,152,0.0,3.0,95,0.00,,,0.00,meteohub,2013-06-11 00:43:00,
2013-06-10 20:48:00,65.8,64.4,29.91,SE,129,0.0,3.0,95,0.00,,,0.00,meteohub,2013-06-11 00:48:00,
2013-06-10 20:53:00,65.7,64.4,29.91,SE,129,0.0,1.0,96,0.00,,,0.00,meteohub,2013-06-11 00:53:00,
2013-06-10 20:58:00,65.5,64.2,29.91,SE,146,2.0,2.0,96,0.00,,,0.00,meteohub,2013-06-11 00:58:00,
2013-06-10 21:03:00,65.5,64.6,29.91,SE,143,0.0,3.0,97,0.00,,,0.00,meteohub,2013-06-11 01:03:00,
2013-06-10 21:08:00,65.1,64.2,29.91,SSE,150,0.0,3.0,97,0.00,,,0.00,meteohub,2013-06-11 01:08:00,
2013-06-10 21:13:00,65.1,64.2,29.91,East,82,0.0,3.0,97,0.00,,,0.00,meteohub,2013-06-11 01:13:00,
2013-06-10 21:18:00,65.1,64.2,29.91,SE,146,0.0,1.0,97,0.00,,,0.00,meteohub,2013-06-11 01:18:00,
2013-06-10 21:23:00,64.9,64.0,29.91,SE,146,0.0,1.0,97,0.00,,,0.00,meteohub,2013-06-11 01:23:00,
2013-06-10 21:28:00,65.1,64.6,29.92,ESE,106,0.0,1.0,98,0.00,,,0.00,meteohub,2013-06-11 01:28:00,
2013-06-10 21:33:00,65.1,64.6,29.92,NW,314,0.0,1.0,98,0.00,,,0.00,meteohub,2013-06-11 01:33:00,
2013-06-10 21:38:00,65.3,64.8,29.92,SE,138,0.0,2.0,98,0.00,,,0.00,meteohub,2013-06-11 01:38:00,
2013-06-10 21:43:00,65.5,64.9,29.93,SE,129,0.0,2.0,98,0.00,,,0.00,meteohub,2013-06-11 01:43:00,
2013-06-10 21:48:00,65.3,64.4,29.93,SSE,168,0.0,2.0,97,0.00,,,0.00,meteohub,2013-06-11 01:48:00,
2013-06-10 21:53:00,65.3,64.4,29.93,East,100,0.0,2.0,97,0.00,,,0.00,meteohub,2013-06-11 01:53:00,
2013-06-10 21:58:00,65.1,64.2,29.94,ESE,111,0.0,1.0,97,0.00,,,0.00,meteohub,2013-06-11 01:58:00,
2013-06-10 22:03:00,65.1,64.6,29.94,WNW,295,0.0,1.0,98,0.00,,,0.00,meteohub,2013-06-11 02:03:00,
2013-06-10 22:08:00,65.1,64.6,29.94,NE,39,0.0,1.0,98,0.00,,,0.00,meteohub,2013-06-11 02:08:00,
2013-06-10 22:13:00,65.3,64.8,29.95,SSE,159,0.0,1.0,98,0.00,,,0.00,meteohub,2013-06-11 02:13:00,
2013-06-10 22:18:00,65.3,64.4,29.95,SW,228,0.0,3.0,97,0.00,,,0.00,meteohub,2013-06-11 02:18:00,
2013-06-10 22:23:00,65.3,64.4,29.95,SE,135,3.0,3.0,97,0.00,,,0.00,meteohub,2013-06-11 02:23:00,
2013-06-10 22:28:00,65.3,64.4,29.95,WSW,245,0.0,3.0,97,0.00,,,0.00,meteohub,2013-06-11 02:28:00,
2013-06-10 22:33:00,65.1,64.2,29.96,SE,131,0.0,3.0,97,0.00,,,0.00,meteohub,2013-06-11 02:33:00,
2013-06-10 22:38:00,65.3,64.4,29.96,ESE,121,0.0,3.0,97,0.00,,,0.00,meteohub,2013-06-11 02:38:00,
2013-06-10 22:43:00,65.1,64.2,29.96,SE,133,0.0,2.0,97,0.00,,,0.00,meteohub,2013-06-11 02:43:00,
2013-06-10 22:48:00,65.1,64.2,29.96,WNW,303,0.0,2.0,97,0.00,,,0.00,meteohub,2013-06-11 02:48:00,
2013-06-10 22:53:00,65.3,64.4,29.96,South,188,0.0,4.0,97,0.00,,,0.00,meteohub,2013-06-11 02:53:00,
2013-06-10 22:58:00,65.1,64.2,29.96,SE,129,0.0,4.0,97,0.00,,,0.00,meteohub,2013-06-11 02:58:00,
2013-06-10 23:03:00,65.1,64.2,29.96,SE,129,0.0,4.0,97,0.00,,,0.00,meteohub,2013-06-11 03:03:00,
2013-06-10 23:08:00,65.1,64.2,29.96,SE,138,0.0,2.0,97,0.00,,,0.00,meteohub,2013-06-11 03:08:00,
2013-06-10 23:13:00,65.1,64.2,29.96,ESE,115,0.0,1.0,97,0.00,,,0.00,meteohub,2013-06-11 03:13:00,
2013-06-10 23:18:00,65.1,64.2,29.96,SE,131,0.0,3.0,97,0.00,,,0.00,meteohub,2013-06-11 03:18:00,
2013-06-10 23:23:00,65.1,64.2,29.96,SE,136,1.0,3.0,97,0.00,,,0.00,meteohub,2013-06-11 03:23:00,
2013-06-10 23:28:00,65.1,64.2,29.96,South,190,0.0,3.0,97,0.00,,,0.00,meteohub,2013-06-11 03:28:00,
2013-06-10 23:33:00,65.1,64.2,29.96,North,356,0.0,2.0,97,0.00,,,0.00,meteohub,2013-06-11 03:33:00,
2013-06-10 23:38:00,65.5,64.6,29.96,SE,136,0.0,2.0,97,0.00,,,0.00,meteohub,2013-06-11 03:38:00,
2013-06-10 23:43:00,65.5,64.6,29.95,East,82,2.0,3.0,97,0.00,,,0.00,meteohub,2013-06-11 03:43:00,
2013-06-10 23:48:00,65.5,64.6,29.95,SE,142,2.0,3.0,97,0.00,,,0.00,meteohub,2013-06-11 03:48:00,
2013-06-10 23:53:00,65.5,64.6,29.95,ENE,75,0.0,6.0,97,0.00,,,0.00,meteohub,2013-06-11 03:53:00,
2013-06-10 23:58:00,65.3,64.4,29.95,East,86,0.0,6.0,97,0.00,,,0.00,meteohub,2013-06-11 03:58:00,